Location: Gülübeli Geçidi
(36.8411°N, 29.7411°E)
Time: 08:01:30
(UTC+00:00)

Cosmos 2333 - Pass Details

Date: 15 May 2026
Orbit: 828 x 864 km, 70.9° (Epoch: 6 June)

Event Time Altitude Azimuth Distance (km) Brightness Sun altitude
Rises 20:16:05 0° 336° (NNW) 3,428 8.6 -29.2°
Reaches altitude 10° 20:18:33 10° 336° (NNW) 2,493 7.6 -29.5°
Enters shadow 20:23:46 73° 310° (NW) 900 4.3 -29.9°
